Weather History for Firenze / Peretola, Italy

Change the Weather History Date:

Tuesday, May 28, 2013

  Actual Average Record
Temperature  
Mean Temperature 60 °F -  
Max Temperature 66 °F 81 °F - ()
Min Temperature 55 °F 58 °F - ()
Degree Days  
Heating Degree Days 4    
Growing Degree Days 10 (Base 50)    
Moisture  
Dew Point 52 °F    
Average Humidity 73    
Maximum Humidity 88    
Minimum Humidity 60    
Precipitation  
Precipitation 0.00 in 0.07 in - ()
Sea Level Pressure  
Sea Level Pressure 29.79 in    
Wind  
Wind Speed 4 mph ()    
Max Wind Speed 8 mph    
Max Gust Speed -    
Visibility 6.2 miles    
Events Rain    
T = Trace of Precipitation, MM = Missing Value Source: Averaged Metar Reports

Daily Weather History Graph

Daily Weather History Graph

Search for Another Location

Airport:

Trip Planner

Search our weather history database for the weather conditions in past years. The results will help you decide how hot, cold, wet, or windy it might be!

Date:

Astronomy

May. 28, 2013 Rise Set
Actual Time 5:38 AM CEST 8:47 PM CEST
Civil Twilight 5:03 AM CEST 9:21 PM CEST
Nautical Twilight 4:18 AM CEST 10:06 PM CEST
Astronomical Twilight 3:25 AM CEST 11:01 PM CEST
Moon 11:54 PM CEST (5/28) 9:09 AM CEST (5/28)
Length of Visible Light 16h 18m
Length of Day
15h 08m
Waning Gibbous, 85% of the Moon is Illuminated
May 28
Waning Gibbous
May 31
Last Quarter
Jun 8
New
Jun 16
First Quarter
Jun 23
Full

Hourly Weather History & Observations

Time (CEST) Temp. Dew Point Humidity Pressure Visibility Wind Dir Wind Speed Gust Speed Precip Events Conditions
12:20 AM 57.2 °F 48.2 °F 72% 29.92 in 6.2 mi Variable 2.3 mph - N/A   Scattered Clouds
12:50 AM 57.2 °F 48.2 °F 72% 29.92 in 6.2 mi South 3.5 mph - N/A   Scattered Clouds
1:20 AM 57.2 °F 48.2 °F 72% 29.92 in 6.2 mi East 3.5 mph - N/A   Scattered Clouds
2:20 AM 57.2 °F 50.0 °F 77% 29.92 in 6.2 mi SE 4.6 mph - N/A   Scattered Clouds
3:50 AM 57.2 °F 50.0 °F 77% 29.89 in 6.2 mi East 4.6 mph - N/A   Mostly Cloudy
4:50 AM 57.2 °F 50.0 °F 77% 29.89 in 6.2 mi South 2.3 mph - N/A   Mostly Cloudy
5:20 AM 57.2 °F 50.0 °F 77% 29.86 in 6.2 mi SE 4.6 mph - N/A   Mostly Cloudy
5:50 AM 55.4 °F 51.8 °F 88% 29.86 in 6.2 mi ESE 4.6 mph - N/A   Light Drizzle
6:20 AM 55.4 °F 51.8 °F 88% 29.86 in 6.2 mi ENE 3.5 mph - N/A   Light Drizzle
6:50 AM 55.4 °F 50.0 °F 82% 29.86 in 6.2 mi East 5.8 mph - N/A   Light Drizzle
7:20 AM 57.2 °F 50.0 °F 77% 29.86 in 6.2 mi ESE 5.8 mph - N/A   Mostly Cloudy
7:50 AM 55.4 °F 50.0 °F 82% 29.86 in 6.2 mi East 6.9 mph - N/A   Mostly Cloudy
8:20 AM 55.4 °F 50.0 °F 82% 29.86 in 6.2 mi East 8.1 mph - N/A Rain Light Rain
8:50 AM 55.4 °F 50.0 °F 82% 29.83 in 6.2 mi ENE 6.9 mph - N/A Rain Light Rain
9:20 AM 57.2 °F 50.0 °F 77% 29.83 in 6.2 mi East 3.5 mph - N/A   Mostly Cloudy
9:50 AM 59.0 °F 50.0 °F 72% 29.83 in 6.2 mi East 3.5 mph - N/A   Scattered Clouds
10:20 AM 59.0 °F 51.8 °F 77% 29.83 in 6.2 mi ESE 4.6 mph - N/A   Mostly Cloudy
10:50 AM 59.0 °F 51.8 °F 77% 29.83 in 6.2 mi ESE 4.6 mph - N/A   Mostly Cloudy
11:20 AM 59.0 °F 51.8 °F 77% 29.83 in 6.2 mi ESE 3.5 mph - N/A   Mostly Cloudy
11:50 AM 59.0 °F 51.8 °F 77% 29.83 in 6.2 mi ESE 4.6 mph - N/A   Mostly Cloudy
12:20 PM 62.6 °F 51.8 °F 68% 29.83 in 6.2 mi Variable 3.5 mph - N/A   Mostly Cloudy
12:50 PM 62.6 °F 51.8 °F 68% 29.80 in 6.2 mi East 4.6 mph - N/A   Mostly Cloudy
1:20 PM 62.6 °F 51.8 °F 68% 29.80 in 6.2 mi ESE 4.6 mph - N/A   Mostly Cloudy
1:50 PM 64.4 °F 51.8 °F 64% 29.77 in 6.2 mi Variable 3.5 mph - N/A   Mostly Cloudy
2:20 PM 66.2 °F 51.8 °F 60% 29.77 in 6.2 mi Variable 3.5 mph - N/A   Mostly Cloudy
2:50 PM 66.2 °F 53.6 °F 64% 29.77 in 6.2 mi South 4.6 mph - N/A   Mostly Cloudy
3:20 PM 66.2 °F 53.6 °F 64% 29.77 in 6.2 mi SE 6.9 mph - N/A   Mostly Cloudy
3:50 PM 66.2 °F 53.6 °F 64% 29.74 in 6.2 mi SSE 5.8 mph - N/A   Mostly Cloudy
4:20 PM 64.4 °F 53.6 °F 68% 29.74 in 6.2 mi SSE 4.6 mph - N/A   Mostly Cloudy
4:50 PM 66.2 °F 53.6 °F 64% 29.74 in 6.2 mi Variable 2.3 mph - N/A   Mostly Cloudy
5:20 PM 66.2 °F 51.8 °F 60% 29.74 in 6.2 mi Variable 1.2 mph - N/A   Mostly Cloudy
5:50 PM 66.2 °F 51.8 °F 60% 29.74 in 6.2 mi Variable 1.2 mph - N/A   Mostly Cloudy
6:20 PM 66.2 °F 53.6 °F 64% 29.71 in 6.2 mi WNW 3.5 mph - N/A   Mostly Cloudy
6:50 PM 64.4 °F 55.4 °F 73% 29.71 in 6.2 mi WNW 3.5 mph - N/A   Mostly Cloudy
7:20 PM 64.4 °F 55.4 °F 73% 29.71 in 6.2 mi NW 3.5 mph - N/A   Mostly Cloudy
7:50 PM 64.4 °F 53.6 °F 68% 29.71 in 6.2 mi West 3.5 mph - N/A   Mostly Cloudy
8:20 PM 64.4 °F 53.6 °F 68% 29.68 in 6.2 mi WSW 3.5 mph - N/A   Mostly Cloudy
8:50 PM 64.4 °F 51.8 °F 64% 29.68 in 6.2 mi WSW 3.5 mph - N/A   Mostly Cloudy
9:20 PM 62.6 °F 53.6 °F 72% 29.68 in 6.2 mi Variable 2.3 mph - N/A   Mostly Cloudy
9:50 PM 62.6 °F 53.6 °F 72% 29.68 in 6.2 mi SSW 3.5 mph - N/A   Mostly Cloudy
10:20 PM 60.8 °F 53.6 °F 77% 29.68 in 6.2 mi Variable 1.2 mph - N/A   Mostly Cloudy
10:50 PM 60.8 °F 53.6 °F 77% 29.71 in 6.2 mi SSW 3.5 mph - N/A   Mostly Cloudy
11:20 PM 60.8 °F 53.6 °F 77% 29.71 in 6.2 mi SSW 3.5 mph - N/A   Mostly Cloudy
11:50 PM 60.8 °F 53.6 °F 77% 29.71 in 6.2 mi SSW 3.5 mph - N/A   Mostly Cloudy